RH
62 62 57 56 36 27 37 25 18 16 31 39 43 48 54 37 26 21 48 73 64 27 13 11 10 8 6 5 4 4 4 4 4 4 4 4 4 4 4 4 4 5 5
66 70 70 62 54 39 29 32 23 19 17 21 17 30 43 59 29 17 24 48 42 29 16 12 8 6 4 4 4 4 4 4 4 4 7 8 4 4 3 3 4 5 6
62 65 69 71 69 58 48 66 51 22 21 20 13 22 31 29 15 13 15 38 31 21 18 12 7 5 4 4 4 4 4 4 4 4 4 4 4 4 3 3 4 11 49
59 71 74 75 70 71 63 61 61 36 24 23 18 16 12 10 13 12 14 33 40 23 20 14 8 5 4 4 4 4 4 4 4 4 4 4 6 18 34 8 4 12 16
46 58 69 71 77 70 67 70 56 49 52 35 35 70 17 13 12 13 19 31 37 29 22 16 7 5 4 4 4 4 4 4 4 4 5 12 64 97 21 5 5 5 6
21 28 31 37 56 73 70 62 68 54 65 57 43 38 46 28 15 17 24 30 33 51 46 20 7 5 4 4 4 4 4 4 4 5 9 36 75 25 6 5 5 5 5
6 6 6 8 14 31 62 68 61 68 61 65 55 47 39 49 26 36 26 47 60 76 73 24 7 5 5 4 4 4 4 5 4 5 10 30 41 9 6 5 5 5 4
7 6 6 5 4 5 17 49 65 59 69 71 65 67 46 37 34 35 31 54 79 90 78 15 6 5 5 5 4 4 4 4 4 4 7 25 16 7 5 5 4 4 5
9 8 7 6 6 5 5 9 23 55 58 72 74 66 64 43 29 46 48 57 79 95 99 69 8 6 5 5 4 4 4 4 4 4 5 10 6 5 5 5 5 5 6
10 11 10 10 9 7 5 5 6 11 52 52 71 76 54 54 42 33 55 65 64 85 95 96 55 8 6 5 4 4 4 4 4 4 4 5 6 5 5 5 5 6 6
10 12 12 11 10 9 8 6 5 5 10 27 46 69 76 50 51 46 52 78 59 71 67 71 76 18 7 6 5 5 4 3 3 3 3 4 5 5 5 5 6 6 7
12 11 12 13 13 14 12 9 8 5 5 5 12 47 68 66 50 55 60 92 86 76 75 75 71 42 10 7 6 5 4 3 3 3 3 5 5 5 5 6 7 7 7
11 11 12 12 14 15 15 13 10 8 7 5 7 42 59 67 67 54 61 91 100 86 82 87 64 24 16 7 7 6 4 3 3 3 7 6 5 6 6 7 7 7 8
12 12 12 12 14 15 16 16 14 12 10 9 6 12 67 62 78 65 64 83 100 98 96 99 36 25 24 9 7 7 5 4 3 4 8 7 6 7 7 7 8 8 9
17 15 16 14 13 12 12 12 13 13 12 9 9 8 28 72 71 79 70 82 96 100 96 97 76 32 26 17 8 8 6 5 4 4 11 8 7 7 7 8 8 9 9
30 28 27 28 27 26 25 19 12 11 11 12 10 9 9 40 71 78 85 82 95 99 99 97 90 30 32 27 11 8 8 5 4 5 14 9 8 8 8 8 9 10 10
30 34 35 34 33 31 29 25 17 14 14 15 13 10 11 10 41 73 89 92 89 93 99 100 92 68 30 32 21 9 8 7 4 7 13 10 8 9 9 9 10 10 11
30 35 34 32 30 27 23 21 20 19 18 20 20 16 13 13 12 46 75 92 95 97 99 92 92 83 40 31 25 8 8 7 6 7 13 11 10 10 10 10 10 11 12
15 29 32 26 25 26 25 28 28 26 24 23 22 21 17 18 15 21 77 98 100 98 85 100 91 89 68 26 25 8 9 7 6 9 14 13 10 10 11 11 11 12 13
10 12 31 27 28 28 26 30 31 32 31 27 25 23 28 25 24 17 45 78 98 93 98 93 97 97 90 23 16 8 10 8 7 8 15 16 12 11 12 13 12 13 14
10 10 28 30 28 28 29 26 31 35 43 41 36 33 30 31 32 30 22 77 97 100 100 99 99 100 94 36 12 9 12 10 8 10 16 18 13 12 12 13 14 14 15
12 10 26 32 31 24 27 30 30 38 42 52 55 48 46 39 36 33 32 42 95 100 100 99 100 99 100 65 12 8 12 13 10 12 20 19 14 14 14 13 14 15 16
18 14 17 33 41 36 29 31 36 40 45 48 67 67 56 53 49 45 36 32 75 90 97 99 96 100 99 86 18 10 9 14 14 10 16 18 16 15 15 15 15 16 18
24 17 13 32 45 52 43 40 42 54 63 61 65 64 73 67 62 52 43 36 34 46 82 93 98 100 100 83 39 10 10 14 9 11 12 13 17 16 15 16 16 18 19
22 11 12 31 46 58 52 35 46 62 68 73 81 91 96 77 67 56 46 40 34 33 37 39 87 100 99 98 46 13 10 12 18 22 23 14 14 16 16 17 18 19 20
16 11 13 33 59 68 47 46 68 78 94 92 99 95 84 69 58 50 45 43 35 37 62 37 50 88 100 99 59 30 21 15 13 17 20 24 29 23 19 18 18 19 21
Wind_Speed
9 5 4 4 5 4 4 3 4 6 7 10 10 11 11 12 12 11 11 9 7 6 5 6 7 7 6 5 5 3 3 3 4 5 7 9 10 10 11 11 12 12 13
8 6 3 4 5 5 6 6 5 7 9 10 12 12 13 13 14 13 13 11 9 8 7 5 7 6 6 5 4 3 3 3 4 6 6 10 10 11 12 12 13 13 13
13 10 8 5 5 7 8 8 9 8 9 10 11 12 14 17 15 14 14 12 9 8 7 6 8 8 6 5 4 4 5 6 8 8 7 8 9 10 12 13 15 14 15
12 11 11 11 8 8 10 11 11 10 9 11 12 10 12 13 14 14 13 11 10 9 9 9 9 9 7 6 5 5 7 8 9 10 9 8 8 8 11 14 14 14 14
16 15 13 13 13 11 8 11 13 12 11 12 11 11 10 12 12 12 12 11 11 11 11 10 11 10 8 6 6 7 9 10 11 11 10 9 12 14 14 15 15 14 14
22 24 24 20 18 17 15 12 11 14 15 13 13 13 11 12 12 12 11 10 11 11 12 13 12 11 9 7 7 8 10 11 12 11 12 10 14 15 15 14 14 13 13
19 21 23 25 26 23 21 20 16 14 17 17 16 16 15 14 13 14 10 11 12 12 12 14 14 13 10 8 9 10 10 11 12 12 13 12 13 14 14 12 12 11 11
16 17 20 20 22 25 26 24 23 19 18 20 21 19 18 17 15 15 14 14 14 15 12 14 15 15 12 11 11 11 11 11 12 12 11 11 11 12 12 12 11 11 12
14 15 16 18 17 19 23 27 25 25 22 20 23 24 22 20 19 17 16 17 18 19 16 16 17 16 14 12 13 13 13 13 13 14 13 12 10 11 11 12 12 12 12
14 14 15 17 18 19 19 24 26 27 26 26 23 26 26 24 22 21 21 22 23 23 22 21 22 18 16 15 15 15 16 15 15 14 15 14 12 11 11 12 12 12 12
16 16 17 18 19 20 20 21 24 28 29 29 29 26 27 28 26 24 24 24 27 27 26 25 27 23 19 18 17 17 18 17 16 16 16 15 14 13 12 13 13 12 12
19 19 18 18 20 21 21 22 24 26 29 31 31 30 29 29 29 28 27 27 28 28 26 26 28 29 23 20 18 18 19 18 17 17 17 16 18 15 14 13 13 12 11
20 20 20 19 20 22 23 24 24 26 28 30 32 33 33 32 32 32 31 31 32 30 30 28 28 29 25 21 19 20 20 18 17 18 17 20 19 17 16 16 14 13 11
19 21 21 21 21 22 24 25 26 27 30 31 32 34 32 35 33 35 34 35 35 34 31 28 24 27 26 23 21 23 22 19 18 18 19 21 19 18 18 16 16 14 13
18 18 19 19 21 23 24 26 27 28 30 32 34 36 36 37 39 37 39 40 38 37 34 30 26 26 27 25 24 24 25 22 20 19 21 23 21 20 19 18 17 16 14
19 20 21 22 23 24 25 26 28 28 30 31 34 38 40 42 42 42 42 43 41 39 38 34 29 27 29 27 26 25 27 26 22 21 24 24 23 23 22 20 18 17 16
20 20 22 22 23 24 25 26 28 30 31 34 36 39 42 46 47 45 47 47 45 43 42 33 36 31 32 31 28 28 29 30 26 23 25 25 25 24 21 21 19 18 17
20 20 21 22 22 22 25 27 27 29 31 33 35 39 43 46 50 50 49 49 46 47 42 46 40 35 33 34 31 30 30 32 29 26 28 27 26 25 24 23 21 20 18
20 21 20 19 21 23 24 26 26 27 28 31 35 37 42 46 50 53 49 51 44 48 52 41 43 39 35 36 34 32 32 32 32 30 30 29 28 26 25 22 22 21 21
21 19 18 20 21 21 22 24 25 25 25 28 33 38 39 43 48 52 54 45 54 51 53 56 47 43 37 35 36 35 35 35 34 32 31 31 30 28 26 24 23 22 21
22 21 19 20 21 22 23 25 28 28 29 29 32 37 41 43 44 49 51 53 50 46 44 54 49 48 42 40 38 39 39 39 37 35 34 32 31 30 28 27 25 23 23
21 21 20 21 21 22 24 27 28 30 31 32 33 37 42 45 45 47 52 52 55 53 49 44 56 53 43 41 42 43 44 42 40 38 36 34 33 31 30 28 26 25 24
23 25 20 21 22 23 25 28 30 33 34 37 36 36 45 45 47 46 48 53 60 57 56 47 46 55 47 42 43 45 46 47 43 40 38 35 34 33 31 30 29 28 26
27 28 21 20 23 25 28 31 32 32 35 37 43 46 45 48 49 47 49 51 54 57 63 54 51 47 50 42 41 46 45 44 41 41 39 37 35 34 33 32 30 28 27
27 27 21 20 23 26 29 30 29 33 34 33 35 33 37 43 45 48 48 51 51 54 54 54 47 53 52 44 40 44 45 44 39 36 33 36 36 36 35 33 31 29 28
24 26 21 20 23 23 25 25 27 29 28 29 29 32 28 36 39 44 47 49 52 49 50 51 49 44 52 49 43 45 43 42 38 37 33 32 31 32 31 31 30 29 28
Wind_Direction
217 188 165 172 208 206 189 197 214 222 212 203 208 216 224 229 229 221 217 224 235 238 231 253 244 223 218 220 232 225 203 186 175 167 162 155 138 130 128 128 119 112 108
214 193 175 183 211 221 211 211 224 231 229 224 216 218 220 222 228 227 221 227 233 246 239 242 237 227 230 232 236 230 202 190 182 177 166 138 141 140 136 132 127 122 118
228 228 215 214 216 227 230 218 232 233 234 234 230 222 222 231 233 229 227 231 235 241 242 238 228 230 238 243 235 216 199 196 186 176 165 145 145 146 146 143 132 124 105
240 224 223 223 216 220 230 234 226 229 229 229 239 234 232 228 228 229 231 236 244 246 249 245 230 235 238 243 234 215 198 194 186 169 168 163 149 140 136 136 133 125 118
242 242 233 231 232 225 225 233 237 228 231 232 232 223 227 233 231 231 235 244 253 258 254 249 233 239 238 234 224 208 198 191 184 173 172 163 131 130 135 130 134 131 127
246 246 246 242 238 237 237 240 244 238 223 233 228 227 229 232 239 239 240 250 259 259 256 245 234 236 243 229 214 199 190 191 185 178 176 163 149 146 139 137 138 134 127
254 255 251 247 245 242 241 241 243 244 234 222 230 231 225 223 232 244 243 237 245 252 260 238 234 234 242 236 216 197 191 192 190 191 178 197 166 158 146 142 142 139 135
259 260 265 261 253 248 243 242 243 243 242 233 226 229 228 228 228 229 236 233 237 244 246 244 241 240 233 233 218 201 198 200 201 200 194 176 165 166 152 153 153 148 146
259 256 255 262 260 253 246 241 240 242 241 240 235 230 231 231 227 228 227 227 228 238 242 250 247 248 238 232 220 206 205 203 207 214 204 192 175 176 165 165 164 156 150
255 252 257 260 262 260 253 246 241 238 239 241 239 238 234 232 228 223 227 227 224 236 239 251 253 253 247 236 222 211 209 208 213 219 214 205 196 194 181 175 165 159 155
260 258 254 256 260 261 256 251 247 241 238 237 238 238 238 235 231 229 231 230 224 230 239 247 251 253 250 243 225 218 216 212 217 221 221 214 207 200 185 177 171 166 164
267 263 258 256 259 259 257 252 249 247 243 239 238 237 237 238 233 231 231 229 223 227 234 240 251 256 251 248 236 225 222 215 214 219 221 212 204 193 190 180 174 173 173
268 268 268 264 257 258 259 254 251 248 247 245 239 237 234 236 236 231 229 227 226 227 232 237 251 253 250 250 244 232 225 222 216 220 209 197 197 196 189 185 180 181 178
270 270 270 268 267 260 258 257 256 252 250 247 244 238 235 234 236 233 231 227 231 236 235 243 252 246 245 248 245 238 228 222 220 216 200 198 197 198 191 189 187 186 186
274 272 270 269 267 265 263 261 257 254 252 251 247 241 232 232 232 234 233 231 226 237 241 243 251 247 244 248 246 242 235 224 219 215 203 202 198 200 193 192 194 190 192
282 280 277 274 272 272 272 269 266 261 256 253 251 244 236 232 233 231 233 232 230 231 242 245 247 249 243 245 248 243 239 229 218 215 208 205 201 202 197 196 197 196 196
286 283 284 282 279 276 272 269 267 267 263 255 249 246 239 234 232 232 233 233 235 231 235 237 242 247 245 239 243 242 238 235 222 210 210 206 206 206 202 201 200 203 203
300 295 293 286 282 278 277 273 268 265 264 259 250 245 242 235 233 231 233 235 234 233 229 238 241 241 246 241 239 242 239 236 230 214 212 210 207 212 206 206 201 205 210
307 304 302 292 286 281 278 273 269 264 260 259 255 249 243 239 234 232 229 238 237 232 234 230 239 241 242 240 240 237 239 236 233 220 214 212 210 211 212 211 209 210 211
310 312 305 297 293 289 284 281 274 268 262 256 256 255 250 242 238 235 234 226 234 234 243 242 232 238 240 237 238 236 235 234 232 225 216 214 211 211 211 212 214 215 216
316 318 309 297 296 291 286 279 274 272 271 259 253 253 254 250 244 237 235 230 226 229 239 238 243 231 233 233 232 231 230 230 229 225 216 213 211 212 212 214 215 217 221
324 322 310 299 298 294 287 280 271 271 270 267 263 256 254 253 248 245 238 232 231 240 246 244 239 240 226 230 231 230 228 227 226 221 216 214 213 211 213 215 218 219 222
321 328 314 295 295 294 288 281 276 273 270 266 264 266 252 251 250 245 243 240 229 238 235 239 236 231 226 229 229 232 230 227 223 220 219 218 217 215 214 215 219 220 222
316 323 314 294 291 294 293 291 282 275 278 276 271 268 251 243 243 242 240 241 238 237 243 240 238 241 229 222 232 231 232 239 233 226 222 222 221 220 219 218 221 224 226
319 325 315 294 289 292 297 294 284 280 287 279 274 255 245 242 245 242 240 239 238 237 236 241 240 235 240 217 227 235 232 232 228 231 237 232 228 224 224 223 223 226 228
330 334 320 298 294 299 305 296 292 297 293 292 273 251 249 248 249 246 239 235 235 237 234 234 231 238 239 226 222 232 235 236 231 228 232 228 232 233 233 231 230 230 231